Regional Weather Roundup
Issued by NWS

Home | Current Version | Previous Version | Text Only | Print | Product List | Glossary Off
Versions: 1 2 3 4 5 6 7 8 9 10 11 12 13 14 15 16 17 18 19 20 21 22 23 24 25 26 27 28 29 30 31 32 33 34 35 36 37 38 39 40 41 42 43 44 45 46 47 48 49 50

000
ASUS43 KBIS 162110
RWRND

NORTH DAKOTA REGIONAL WEATHER ROUNDUP
NATIONAL WEATHER SERVICE BISMARCK ND
400 PM CDT WED AUG 16 2017

NOTE: "FAIR" INDICATES FEW OR NO CLOUDS BELOW 12,000 FEET WITH NO
SIGNIFICANT WEATHER AND/OR OBSTRUCTIONS TO VISIBILITY.


NDZ001>003-009>011-017-162200-
NORTHWEST NORTH DAKOTA

CITY           SKY/WX    TMP DP  RH WIND       PRES   REMARKS
WILLISTON      MOSUNNY   80  58  46 MISG      29.91F
MINOT          SUNNY     80  50  34 N9        29.91F
MINOT AFB      SUNNY     78  47  32 N10       29.90S
$$

NDZ018>021-031>035-040>046-162200-
SOUTHWEST NORTH DAKOTA

CITY           SKY/WX    TMP DP  RH WIND       PRES   REMARKS
BISMARCK       CLOUDY    78  57  48 N9        29.92S
DICKINSON      MOSUNNY   79  52  38 VRB5      29.93F
GARRISON         N/A     78  51  38 VRB5      29.91F
HETTINGER ARPT SUNNY     79  50  36 N8        29.98F
$$

NDZ004>008-012>016-024-026-027-054-162200-
NORTHEAST NORTH DAKOTA

CITY           SKY/WX    TMP DP  RH WIND       PRES   REMARKS
GRAND FORKS    CLOUDY    68  66  93 N8        29.85S
GRND FRKS AFB  CLOUDY    67  64  90 N6        29.86S
DEVILS LAKE    MOSUNNY   73  57  57 N8        29.88F
$$

NDZ022-023-025-028>030-036>039-047>053-162200-
SOUTHEAST NORTH DAKOTA

CITY           SKY/WX    TMP DP  RH WIND       PRES   REMARKS
FARGO          LGT RAIN  68  67  96 NW6       29.82F FOG
JAMESTOWN      CLOUDY    72  62  71 N13       29.86S
$$





USA.gov is the U.S. government's official web portal to all federal, state and local government web resources and services.